Regional Weather Roundup
Issued by NWS

Home | Current Version | Previous Version | Graphics & Text | Print | Product List | Glossary On
Versions: 1 2 3 4 5 6 7 8 9 10 11 12 13 14 15 16 17 18 19 20 21 22 23 24 25 26 27 28 29 30 31 32 33 34 35 36 37 38 39 40 41 42 43 44 45 46 47 48 49 50
000
ASUS43 KLOT 011506
RWRIL

ILLINOIS REGIONAL WEATHER ROUNDUP
NATIONAL WEATHER SERVICE CHICAGO/ROMEOVILLE IL
1000 AM CDT FRI AUG 01 2014

NOTE: "FAIR" INDICATES FEW OR NO CLOUDS BELOW 12,000 FEET WITH NO
SIGNIFICANT WEATHER AND/OR OBSTRUCTIONS TO VISIBILITY.

* THESE STATIONS ARE NOT UNDER NWS QUALITY CONTROL. THEY ALSO MAY NOT
  REPORT WEATHER SUCH AS PRECIPITATION OR FOG.

ILZ001-002-007-009-015-016-024-011600-
NORTHWEST ILLINOIS

CITY           SKY/WX    TMP DP  RH WIND       PRES   REMARKS
MOLINE         SUNNY     75  63  66 SW7       30.09S
STERLING*      MOSUNNY   75  63  64 SW5       30.11S
SAVANNA*       SUNNY     76  60  57 SW3       30.10R
$$

ILZ003-004-008-010-011-017-018-011600-
NORTH CENTRAL ILLINOIS

CITY           SKY/WX    TMP DP  RH WIND       PRES   REMARKS
ROCKFORD       MOSUNNY   76  61  59 SW5       30.11R
FREEPORT*      SUNNY     73  64  75 W7        30.12S
ROCHELLE*      MOSUNNY   75  63  65 SW9       30.11R
DE KALB*       MOSUNNY   73  61  66 SW8       30.11R
PERU*          LGT RAIN  67  62  83 SW3       30.12S
$$

ILZ005-006-012>014-019>023-011600-
NORTHEAST ILLINOIS

CITY           SKY/WX    TMP DP  RH WIND       PRES   REMARKS
CHICAGO-OHARE  MOSUNNY   78  56  46 VRB6      30.08S
CHICAGO-MIDWAY MOSUNNY   76  58  53 SW6       30.09R
AURORA         CLOUDY    74  61  63 SW7       30.10R
LANSING*       CLOUDY    72  63  73 SW3       30.11R
JOLIET*        MOSUNNY   74  61  63 S7        30.11R
WAUKEGAN       SUNNY     76  61  59 W5        30.08S
DUPAGE AIRPORT MOSUNNY   77  60  55 VRB5      30.09S
KANKAKEE*      PTSUNNY   74  64  71 CALM      30.11F
WHEELING       MOSUNNY   80  60  50 W7        30.10S HX  81
MORRIS*        MOSUNNY   74  66  77 SE5       30.10R
ROMEOVILLE*    MOSUNNY   73  64  73 S3        30.10R
NORTHERLY ISL    N/A     77  59  53 SW1         N/A
$$

LMZ740>746-011600-
SOUTHERN LAKE MICHIGAN

STATION/POSITION SKY/WX   TEMP    WIND        PRES    VSBY  WAVE
                          AIR SEA DIR/SP/G                  HT/PER
                          (F)     (DEG/KT/KT) (MB)    (MI)  (FT/S)
SOUTHERN BUOY              64 63  220/  4/  6 1018.8R         0
WAUKEGAN HARBOR            73     260/ 10/ 13   N/A
HARRISON CRIB              74     270/  4/  4   N/A
BURNHAM HARBOR             76     190/  4/  7   N/A
CALUMET HARBOR             72     230/  4/  6 1017.9R
MICHIGAN CITY              74     250/  3/  4   N/A
MICHIGAN CITY 6N           71 70  270/  2/  2   N/A           1
ST. JOSEPH                 68 69  190/  6/  8   N/A           1
$$

ILZ025>027-034>036-040-047-049-050-058-095>099-011600-
WEST-CENTRAL ILLINOIS

CITY           SKY/WX    TMP DP  RH WIND       PRES   REMARKS
QUINCY         MOSUNNY   76  60  57 CALM      30.09S
GALESBURG*     MOSUNNY   78  64  61 CALM      30.10S HX  80
MACOMB*        MOSUNNY   70  64  80 N5        30.13S
JACKSONVILLE*  MOSUNNY   77  66  68 CALM      30.10S
PITTSFIELD*    MOSUNNY   74  65  75 CALM      30.10S
$$

ILZ028>032-037-038-041>044-048-051>054-059>061-011600-
CENTRAL ILLINOIS

CITY           SKY/WX    TMP DP  RH WIND       PRES   REMARKS
PONTIAC        MOSUNNY   73  64  73 CALM      30.11S
DECATUR        SUNNY     76  64  66 CALM      30.10S
PEORIA         MOSUNNY   79  64  60 VRB6      30.10R HX  81
LACON*         MOSUNNY   74  63  69 N3        30.10S
LINCOLN*       MOSUNNY   77  66  68 CALM      30.07S
SPRINGFIELD    CLOUDY    76  66  71 CALM      30.09S
TAYLORVILLE    SUNNY     75  64  69 CALM      30.10S
$$

ILZ033-039-045-046-055>057-062-063-011600-
EAST-CENTRAL ILLINOIS

CITY           SKY/WX    TMP DP  RH WIND       PRES   REMARKS
CHAMPAIGN      SUNNY     76  65  68 CALM      30.11S
DANVILLE*      SUNNY     75  67  75 CALM      30.09S HAZE
RANTOUL*       SUNNY     77  63  61 S3        30.11S
MATTOON        SUNNY     77  65  66 CALM      30.10S
PARIS*         SUNNY     77  66  68 S3        30.12S
$$

ILZ079-100>102-011600-
SOUTHWEST ILLINOIS

CITY           SKY/WX    TMP DP  RH WIND       PRES   REMARKS
ALTON          MOSUNNY   75  72  88 CALM      30.09
BELLEVILLE     MOSUNNY   77  68  73 VRB1      30.09S
CAHOKIA*       SUNNY     78  67  68 SE5       30.09S HX  80
SPARTA*        MOSUNNY   73  66  78 CALM      30.10F
$$

ILZ064>066-069>071-074>076-080>082-084>086-088>090-092>094-011600-
SOUTH-CENTRAL ILLINOIS

CITY           SKY/WX    TMP DP  RH WIND       PRES   REMARKS
CARBONDALE     HAZE      76  64  66 MISG      30.10S VSB 1/4
CAIRO*         SUNNY     78  68  69 CALM      30.09S HX  80
EFFINGHAM*     SUNNY     78  62  59 CALM      30.11S
MARION         SUNNY     75  64  69 MISG      30.10F
MT. VERNON     SUNNY     77  64  65 CALM      30.11S
CENTRALIA*     SUNNY     89  64  43 CALM      30.10S HX  90
SALEM*         PTSUNNY   78  67  67 CALM      30.11R HX  80
METROPOLIS*    SUNNY     79  59  50 NW3       30.09S HX  80
$$

ILZ067-068-072-073-078-083-087-091-011600-
SOUTHEAST ILLINOIS

CITY           SKY/WX    TMP DP  RH WIND       PRES   REMARKS
LAWRENCEVILLE  SUNNY     78  66  66 E3        30.11S HX  80
FLORA*         SUNNY     76  65  68 CALM      30.11R
FAIRFIELD*     SUNNY     77  70  78 NE3       30.10S
HARRISBURG*    SUNNY     75  69  81 CALM      30.11S
ROBINSON*      SUNNY     79  67  66 NE3       30.11S HX  81
CARMI*         SUNNY     79  72  78 CALM      30.10R HX  82
$$

ABBREVIATIONS USED IN REMARKS
   TC - TEMPERATURE IN CELSIUS
  WCI - WIND CHILL INDEX
   HX - HEAT INDEX
  VSB - VISIBILITY
$$




USA.gov is the U.S. government's official web portal to all federal, state and local government web resources and services.